When you browse on this site, cookies collect data to enhance your experience and personalize the content and advertising you see.
Visit our Privacy Policy to learn more. By continuing to use the site, you agree to this use of cookies and data.
  • în România
  • Lista ţărilor
  • Pe 7 zile
  • Temperatura apei
  • Hartă satelitară
  • Meteo pe hartă
  • Widget-uri
  • user-avatar
    Intrare

    Meteo pe oră la Shahabad

    Astăzi, 25 Aprilie, Joi

    Timp Temperatura Precipitaţii Vânt Presiune Umiditate
    00:00 +33°C° 0 mm 1 m/s 734 mmHg 22%
    01:00 +32°C° 0 mm 1 m/s 733 mmHg 23%
    02:00 +31°C° 0 mm 1 m/s 733 mmHg 25%
    03:00 +31°C° 0 mm 2 m/s 733 mmHg 26%
    04:00 +30°C° 0 mm 3 m/s 733 mmHg 27%
    05:00 +30°C° 0 mm 3 m/s 733 mmHg 28%
    06:00 +31°C° 0 mm 3 m/s 734 mmHg 26%
    07:00 +34°C° 0 mm 3 m/s 734 mmHg 25%
    08:00 +35°C° 0 mm 3 m/s 734 mmHg 23%
    09:00 +37°C° 0 mm 3 m/s 735 mmHg 21%
    10:00 +39°C° 0 mm 3 m/s 735 mmHg 19%
    11:00 +41°C° 0 mm 2 m/s 735 mmHg 17%
    12:00 +42°C° 0 mm 2 m/s 734 mmHg 15%
    13:00 +43°C° 0 mm 2 m/s 734 mmHg 13%
    14:00 +45°C° 0 mm 2 m/s 733 mmHg 12%
    15:00 +45°C° 0 mm 2 m/s 733 mmHg 12%
    16:00 +44°C° 0 mm 3 m/s 733 mmHg 11%
    17:00 +44°C° 0 mm 3 m/s 732 mmHg 11%
    18:00 +42°C° 0 mm 3 m/s 732 mmHg 13%
    19:00 +39°C° 0 mm 3 m/s 732 mmHg 14%
    20:00 +37°C° 0 mm 3 m/s 733 mmHg 16%
    21:00 +36°C° 0 mm 3 m/s 733 mmHg 17%
    22:00 +35°C° 0 mm 2 m/s 733 mmHg 18%
    23:00 +34°C° 0 mm 2 m/s 733 mmHg 19%

    Mâine, 26 Aprilie, Vineri

    Timp Temperatura Precipitaţii Vânt Presiune Umiditate
    00:00 +34°C° 0 mm 2 m/s 733 mmHg 20%
    01:00 +32°C° 0 mm 1 m/s 732 mmHg 21%
    02:00 +31°C° 0 mm 1 m/s 732 mmHg 23%
    03:00 +31°C° 0 mm 1 m/s 732 mmHg 23%
    04:00 +30°C° 0 mm 1 m/s 732 mmHg 24%
    05:00 +30°C° 0 mm 2 m/s 732 mmHg 25%
    06:00 +32°C° 0 mm 2 m/s 733 mmHg 23%
    07:00 +34°C° 0 mm 2 m/s 733 mmHg 21%
    08:00 +36°C° 0 mm 2 m/s 733 mmHg 19%
    09:00 +38°C° 0 mm 2 m/s 734 mmHg 16%
    10:00 +41°C° 0 mm 2 m/s 734 mmHg 14%
    11:00 +44°C° 0 mm 3 m/s 734 mmHg 11%
    12:00 +45°C° 0 mm 4 m/s 733 mmHg 10%
    13:00 +46°C° 0 mm 5 m/s 733 mmHg 10%
    14:00 +47°C° 0 mm 6 m/s 732 mmHg 9%
    15:00 +46°C° 0 mm 6 m/s 732 mmHg 10%
    16:00 +46°C° 0 mm 6 m/s 732 mmHg 10%
    17:00 +45°C° 0 mm 7 m/s 731 mmHg 11%
    18:00 +42°C° 0 mm 6 m/s 732 mmHg 12%
    19:00 +40°C° 0 mm 5 m/s 732 mmHg 13%
    20:00 +38°C° 0 mm 4 m/s 733 mmHg 15%
    21:00 +37°C° 0 mm 4 m/s 733 mmHg 15%
    22:00 +36°C° 0 mm 4 m/s 733 mmHg 15%
    23:00 +35°C° 0 mm 4 m/s 734 mmHg 15%

    Poimâine, 27 Aprilie, Sâmbătă

    Timp Temperatura Precipitaţii Vânt Presiune Umiditate
    00:00 +35°C° 0 mm 4 m/s 733 mmHg 15%
    01:00 +34°C° 0 mm 4 m/s 733 mmHg 14%
    02:00 +33°C° 0 mm 3 m/s 733 mmHg 14%
    03:00 +33°C° 0 mm 3 m/s 733 mmHg 13%
    04:00 +31°C° 0 mm 3 m/s 733 mmHg 12%
    05:00 +31°C° 0 mm 3 m/s 732 mmHg 11%
    06:00 +34°C° 0 mm 4 m/s 733 mmHg 10%
    07:00 +37°C° 0 mm 4 m/s 733 mmHg 10%
    08:00 +41°C° 0 mm 5 m/s 734 mmHg 9%
    09:00 +42°C° 0 mm 6 m/s 734 mmHg 8%
    10:00 +44°C° 0 mm 7 m/s 734 mmHg 6%
    11:00 +46°C° 0 mm 8 m/s 734 mmHg 5%
    12:00 +46°C° 0 mm 8 m/s 733 mmHg 5%
    13:00 +46°C° 0 mm 8 m/s 732 mmHg 4%
    14:00 +48°C° 0 mm 8 m/s 732 mmHg 4%
    15:00 +46°C° 0 mm 8 m/s 731 mmHg 5%
    16:00 +45°C° 0 mm 8 m/s 731 mmHg 5%
    17:00 +45°C° 0 mm 7 m/s 731 mmHg 6%
    18:00 +42°C° 0 mm 6 m/s 731 mmHg 7%
    19:00 +40°C° 0 mm 6 m/s 732 mmHg 8%
    20:00 +37°C° 0 mm 5 m/s 732 mmHg 9%
    21:00 +36°C° 0 mm 5 m/s 732 mmHg 10%
    22:00 +36°C° 0 mm 5 m/s 732 mmHg 10%
    23:00 +35°C° 0 mm 5 m/s 732 mmHg 11%

    28 Aprilie, Duminică

    Timp Temperatura Precipitaţii Vânt Presiune Umiditate
    00:00 +34°C° 0 mm 5 m/s 732 mmHg 10%
    01:00 +34°C° 0 mm 4 m/s 731 mmHg 10%
    02:00 +33°C° 0 mm 4 m/s 731 mmHg 9%
    03:00 +32°C° 0 mm 4 m/s 731 mmHg 8%
    04:00 +32°C° 0 mm 4 m/s 731 mmHg 8%
    05:00 +30°C° 0 mm 3 m/s 731 mmHg 7%
    06:00 +34°C° 0 mm 4 m/s 731 mmHg 7%
    07:00 +36°C° 0 mm 4 m/s 732 mmHg 7%
    08:00 +40°C° 0 mm 5 m/s 732 mmHg 7%
    09:00 +42°C° 0 mm 6 m/s 732 mmHg 6%
    10:00 +44°C° 0 mm 7 m/s 732 mmHg 5%
    11:00 +46°C° 0 mm 7 m/s 732 mmHg 5%
    12:00 +48°C° 0 mm 8 m/s 731 mmHg 4%
    13:00 +48°C° 0 mm 8 m/s 731 mmHg 4%
    14:00 +48°C° 0 mm 8 m/s 730 mmHg 4%
    15:00 +48°C° 0 mm 8 m/s 730 mmHg 4%
    16:00 +46°C° 0 mm 7 m/s 730 mmHg 5%
    17:00 +46°C° 0 mm 7 m/s 729 mmHg 5%
    18:00 +42°C° 0 mm 6 m/s 730 mmHg 6%
    19:00 +40°C° 0 mm 5 m/s 730 mmHg 7%
    20:00 +37°C° 0 mm 4 m/s 731 mmHg 8%
    21:00 +36°C° 0 mm 4 m/s 731 mmHg 8%
    22:00 +36°C° 0 mm 4 m/s 731 mmHg 9%
    23:00 +35°C° 0 mm 4 m/s 731 mmHg 10%

    29 Aprilie, Luni

    Timp Temperatura Precipitaţii Vânt Presiune Umiditate
    00:00 +34°C° 0 mm 3 m/s 731 mmHg 10%
    01:00 +33°C° 0 mm 3 m/s 730 mmHg 9%
    02:00 +33°C° 0 mm 3 m/s 730 mmHg 9%
    03:00 +31°C° 0 mm 2 m/s 730 mmHg 9%
    04:00 +31°C° 0 mm 2 m/s 730 mmHg 8%
    05:00 +30°C° 0 mm 1 m/s 730 mmHg 8%
    06:00 +32°C° 0 mm 1 m/s 730 mmHg 8%
    07:00 +34°C° 0 mm 1 m/s 731 mmHg 7%
    08:00 +37°C° 0 mm 1 m/s 731 mmHg 7%
    09:00 +40°C° 0 mm 2 m/s 731 mmHg 6%
    10:00 +43°C° 0 mm 3 m/s 731 mmHg 6%
    11:00 +47°C° 0 mm 4 m/s 731 mmHg 6%
    12:00 +47°C° 0 mm 5 m/s 731 mmHg 5%
    13:00 +48°C° 0 mm 5 m/s 730 mmHg 5%
    14:00 +48°C° 0 mm 6 m/s 729 mmHg 4%
    15:00 +48°C° 0 mm 5 m/s 729 mmHg 4%
    16:00 +47°C° 0 mm 5 m/s 729 mmHg 4%
    17:00 +47°C° 0 mm 5 m/s 729 mmHg 4%
    18:00 +43°C° 0 mm 4 m/s 729 mmHg 5%
    19:00 +41°C° 0 mm 4 m/s 730 mmHg 6%
    20:00 +37°C° 0 mm 3 m/s 730 mmHg 7%
    21:00 +37°C° 0 mm 3 m/s 730 mmHg 7%
    22:00 +36°C° 0 mm 3 m/s 730 mmHg 8%
    23:00 +35°C° 0 mm 3 m/s 731 mmHg 8%

    30 Aprilie, Marţi

    Timp Temperatura Precipitaţii Vânt Presiune Umiditate
    00:00 +34°C° 0 mm 3 m/s 730 mmHg 9%
    01:00 +32°C° 0 mm 2 m/s 730 mmHg 10%
    02:00 +32°C° 0 mm 2 m/s 729 mmHg 10%
    03:00 +31°C° 0 mm 2 m/s 729 mmHg 11%
    04:00 +31°C° 0 mm 3 m/s 729 mmHg 11%
    05:00 +31°C° 0 mm 3 m/s 729 mmHg 12%
    06:00 +34°C° 0 mm 3 m/s 730 mmHg 11%
    07:00 +36°C° 0 mm 3 m/s 730 mmHg 10%
    08:00 +38°C° 0 mm 4 m/s 730 mmHg 9%
    09:00 +42°C° 0 mm 4 m/s 730 mmHg 8%
    10:00 +44°C° 0 mm 4 m/s 730 mmHg 6%
    11:00 +48°C° 0 mm 4 m/s 730 mmHg 5%
    12:00 +48°C° 0 mm 4 m/s 729 mmHg 5%
    13:00 +49°C° 0 mm 4 m/s 728 mmHg 5%
    14:00 +48°C° 0 mm 3 m/s 727 mmHg 4%
    15:00 +48°C° 0 mm 3 m/s 727 mmHg 4%
    16:00 +48°C° 0 mm 3 m/s 727 mmHg 4%
    17:00 +47°C° 0 mm 3 m/s 726 mmHg 5%
    18:00 +45°C° 0 mm 3 m/s 727 mmHg 5%
    19:00 +41°C° 0 mm 2 m/s 727 mmHg 6%
    20:00 +39°C° 0 mm 2 m/s 727 mmHg 7%
    21:00 +38°C° 0 mm 2 m/s 728 mmHg 7%
    22:00 +37°C° 0 mm 2 m/s 728 mmHg 8%
    23:00 +36°C° 0 mm 2 m/s 728 mmHg 8%
    Arată mai mult